| time (UTC) | temp F | wind direction | speed MPH | gust MPH | rain 1hr in | rain 24hr in | rain mn in | humidity % | barometer mb |
| 20260831004539 | 74 | 267 | 0.0 | 0.0 | 0.00 | 0.03 | 0.00 | 21 | 1005.7 |
| 20260831003043 | 73 | 266 | 0.0 | 0.0 | 0.00 | 0.03 | 0.00 | 19 | 1005.7 |
| 20260831001541 | 74 | 318 | 0.0 | 2.0 | 0.00 | 0.03 | 0.00 | 19 | 1005.7 |
| 20260831000039 | 74 | 317 | 0.0 | 0.0 | 0.00 | 0.03 | 0.00 | 20 | 1005.7 |
| 20260830234537 | 74 | 355 | 0.0 | 2.0 | 0.00 | 0.03 | 0.00 | 20 | 1005.8 |
| 20260830233037 | 75 | 299 | 0.0 | 0.0 | 0.00 | 0.03 | 0.00 | 21 | 1005.6 |
| 20260830231538 | 75 | 283 | 0.0 | 0.0 | 0.00 | 0.03 | 0.00 | 16 | 1005.5 |
| 20260830230133 | 74 | 311 | 0.0 | 2.0 | 0.00 | 0.03 | 0.00 | 18 | 1005.6 |
| 20260830224535 | 74 | 304 | 0.0 | 3.0 | 0.00 | 0.03 | 0.00 | 18 | 1005.4 |
| 20260830223033 | 74 | 260 | 0.0 | 10.0 | 0.00 | 0.03 | 0.00 | 21 | 1005.6 |
| 20260830221532 | 74 | 304 | 0.0 | 6.0 | 0.00 | 0.03 | 0.00 | 20 | 1005.6 |
| 20260830220036 | 74 | 323 | 0.0 | 2.0 | 0.00 | 0.03 | 0.00 | 19 | 1005.5 |
| 20260830214529 | 74 | 296 | 0.0 | 9.0 | 0.00 | 0.03 | 0.00 | 20 | 1005.3 |
| 20260830213028 | 74 | 299 | 1.0 | 5.0 | 0.00 | 0.03 | 0.00 | 21 | 1005.3 |
| 20260830211528 | 74 | 255 | 0.0 | 4.0 | 0.00 | 0.03 | 0.00 | 22 | 1005.2 |
| 20260830210026 | 73 | 274 | 0.0 | 4.0 | 0.00 | 0.03 | 0.00 | 24 | 1005.2 |
| 20260830204532 | 73 | 334 | 0.0 | 7.0 | 0.00 | 0.07 | 0.00 | 23 | 1005.2 |
| 20260830203022 | 73 | 238 | 1.0 | 8.0 | 0.00 | 0.07 | 0.00 | 25 | 1005.1 |
| 20260830201522 | 72 | 215 | 0.0 | 14.0 | 0.00 | 0.07 | 0.00 | 25 | 1005.1 |
| 20260830200017 | 70 | 282 | 0.0 | 3.0 | 0.00 | 0.07 | 0.00 | 32 | 1004.9 |
| 20260830194516 | 68 | 40 | 0.0 | 0.0 | 0.00 | 0.07 | 0.00 | 41 | 1004.9 |
| 20260830193015 | 66 | 355 | 0.0 | 0.0 | 0.00 | 0.07 | 0.00 | 50 | 1005.3 |
| 20260830191515 | 64 | 92 | 0.0 | 0.0 | 0.00 | 0.07 | 0.00 | 60 | 1005.6 |
| 20260830190015 | 61 | 316 | 0.0 | 0.0 | 0.00 | 0.07 | 0.00 | 69 | 1006.0 |
| 20260830184513 | 61 | 49 | 0.0 | 0.0 | 0.00 | 0.07 | 0.00 | 64 | 1006.4 |
| 20260830183012 | 61 | 5 | 0.0 | 3.0 | 0.00 | 0.07 | 0.00 | 62 | 1006.3 |
| 20260830181512 | 60 | 45 | 0.0 | 2.0 | 0.00 | 0.07 | 0.00 | 67 | 1006.4 |
| 20260830180012 | 61 | 22 | 0.0 | 4.0 | 0.00 | 0.07 | 0.00 | 67 | 1006.1 |
| 20260830174510 | 62 | 32 | 0.0 | 8.0 | 0.00 | 0.07 | 0.00 | 65 | 1005.5 |
| 20260830173006 | 61 | 17 | 1.0 | 4.0 | 0.00 | 0.07 | 0.00 | 65 | 1005.6 |
| 20260830171508 | 66 | 251 | 0.0 | 2.0 | 0.00 | 0.07 | 0.00 | 41 | 1005.1 |
| 20260830170105 | 66 | 236 | 0.0 | 5.0 | 0.00 | 0.07 | 0.00 | 40 | 1005.0 |
| 20260830164504 | 68 | 244 | 0.0 | 4.0 | 0.00 | 0.08 | 0.00 | 38 | 1005.3 |
| 20260830163002 | 69 | 158 | 0.0 | 1.0 | 0.00 | 0.08 | 0.00 | 40 | 1005.2 |
| 20260830161615 | 70 | 161 | 0.0 | 0.0 | 0.00 | 0.08 | 0.00 | 43 | 1004.9 |
| 20260830160058 | 70 | 152 | 0.0 | 0.0 | 0.00 | 0.08 | 0.00 | 43 | 1004.8 |
| 20260830154553 | 68 | 167 | 0.0 | 2.0 | 0.00 | 0.10 | 0.00 | 45 | 1004.8 |
| 20260830153049 | 66 | 200 | 0.0 | 0.0 | 0.00 | 0.10 | 0.00 | 48 | 1004.9 |
| 20260830151548 | 63 | 205 | 0.0 | 0.0 | 0.00 | 0.10 | 0.00 | 53 | 1005.5 |
| 20260830150040 | 62 | 196 | 0.0 | 1.0 | 0.00 | 0.10 | 0.00 | 55 | 1005.7 |
| 20260830144536 | 60 | 221 | 0.0 | 0.0 | 0.00 | 0.10 | 0.00 | 61 | 1005.7 |
| 20260830143031 | 58 | 221 | 0.0 | 0.0 | 0.00 | 0.10 | 0.00 | 64 | 1005.7 |
| 20260830141526 | 55 | 198 | 0.0 | 0.0 | 0.00 | 0.10 | 0.00 | 68 | 1005.9 |
| 20260830140030 | 54 | 195 | 0.0 | 0.0 | 0.00 | 0.10 | 0.00 | 69 | 1006.1 |
| 20260830134523 | 52 | 252 | 0.0 | 0.0 | 0.00 | 0.10 | 0.00 | 74 | 1006.3 |
| 20260830133024 | 52 | 213 | 0.0 | 0.0 | 0.00 | 0.10 | 0.00 | 74 | 1006.0 |
| 20260830131520 | 52 | 241 | 0.0 | 3.0 | 0.00 | 0.10 | 0.00 | 70 | 1005.7 |
| 20260830130017 | 51 | 186 | 0.0 | 0.0 | 0.00 | 0.10 | 0.00 | 72 | 1005.7 |
| 20260830124520 | 52 | 223 | 0.0 | 0.0 | 0.00 | 0.10 | 0.00 | 71 | 1005.7 |
| 20260830123008 | 53 | 202 | 0.0 | 0.0 | 0.00 | 0.10 | 0.00 | 68 | 1005.2 |
| 20260830121508 | 54 | 215 | 0.0 | 1.0 | 0.00 | 0.10 | 0.00 | 67 | 1005.1 |
| 20260830120006 | 54 | 194 | 0.0 | 2.0 | 0.00 | 0.10 | 0.00 | 67 | 1004.9 |
| 20260830114502 | 55 | 196 | 0.0 | 1.0 | 0.00 | 0.10 | 0.00 | 65 | 1005.0 |
| 20260830113001 | 55 | 194 | 0.0 | 0.0 | 0.00 | 0.10 | 0.00 | 65 | 1004.9 |
| 20260830111559 | 56 | 190 | 0.0 | 0.0 | 0.00 | 0.10 | 0.00 | 64 | 1004.7 |
| 20260830110058 | 57 | 200 | 0.0 | 0.0 | 0.00 | 0.10 | 0.00 | 64 | 1004.7 |
| 20260830104603 | 57 | 178 | 0.0 | 0.0 | 0.00 | 0.10 | 0.00 | 63 | 1004.7 |
| 20260830103055 | 57 | 206 | 0.0 | 0.0 | 0.00 | 0.10 | 0.00 | 68 | 1004.7 |
| 20260830101654 | 57 | 226 | 0.0 | 0.0 | 0.00 | 0.10 | 0.00 | 69 | 1004.8 |
| 20260830100054 | 57 | 202 | 0.0 | 0.0 | 0.00 | 0.10 | 0.00 | 68 | 1004.7 |
| 20260830094606 | 58 | 172 | 0.0 | 0.0 | 0.00 | 0.10 | 0.00 | 68 | 1004.7 |
| 20260830093055 | 57 | 135 | 0.0 | 0.0 | 0.00 | 0.10 | 0.00 | 67 | 1004.8 |
| 20260830091552 | 58 | 90 | 0.0 | 0.0 | 0.00 | 0.10 | 0.00 | 69 | 1005.1 |
| 20260830090058 | 58 | 340 | 0.0 | 0.0 | 0.00 | 0.10 | 0.00 | 67 | 1005.1 |
| 20260830084550 | 60 | 216 | 0.0 | 0.0 | 0.00 | 0.10 | 0.00 | 59 | 1004.8 |
| 20260830083051 | 59 | 219 | 0.0 | 1.0 | 0.00 | 0.10 | 0.00 | 62 | 1004.9 |
| 20260830081544 | 57 | 149 | 0.0 | 0.0 | 0.00 | 0.10 | 0.00 | 69 | 1005.1 |
| 20260830080047 | 57 | 189 | 0.0 | 0.0 | 0.00 | 0.10 | 0.00 | 78 | 1004.9 |
| 20260830074543 | 57 | 189 | 0.0 | 0.0 | 0.00 | 0.10 | 0.00 | 69 | 1004.6 |
| 20260830073045 | 57 | 188 | 0.0 | 1.0 | 0.00 | 0.10 | 0.00 | 82 | 1004.7 |
| 20260830071555 | 57 | 206 | 0.0 | 0.0 | 0.00 | 0.10 | 0.00 | 79 | 1004.8 |
| 20260830070037 | 57 | 213 | 0.0 | 0.0 | 0.00 | 0.10 | 0.00 | 81 | 1004.6 |
| 20260830064537 | 57 | 215 | 0.0 | 0.0 | 0.00 | 0.11 | 0.00 | 84 | 1004.6 |
| 20260830063037 | 57 | 227 | 0.0 | 0.0 | 0.00 | 0.11 | 0.00 | 83 | 1005.0 |
| 20260830061533 | 57 | 139 | 0.0 | 0.0 | 0.00 | 0.11 | 0.00 | 85 | 1004.9 |
| 20260830060031 | 57 | 151 | 0.0 | 0.0 | 0.00 | 0.11 | 0.00 | 85 | 1005.6 |
| 20260830054536 | 57 | 150 | 0.0 | 0.0 | 0.00 | 0.12 | 0.11 | 84 | 1005.4 |
| 20260830053028 | 56 | 215 | 0.0 | 1.0 | 0.00 | 0.12 | 0.11 | 84 | 1005.2 |
| 20260830051528 | 56 | 207 | 0.0 | 0.0 | 0.00 | 0.12 | 0.11 | 86 | 1005.3 |
| 20260830050042 | 56 | 213 | 0.0 | 0.0 | 0.00 | 0.12 | 0.11 | 87 | 1005.4 |
| 20260830044535 | 55 | 234 | 0.0 | 0.0 | 0.00 | 0.12 | 0.11 | 88 | 1005.7 |
| 20260830043026 | 55 | 249 | 0.0 | 0.0 | 0.00 | 0.12 | 0.11 | 89 | 1005.6 |
| 20260830041557 | 55 | 249 | 0.0 | 0.0 | 0.00 | 0.12 | 0.11 | 89 | 1005.5 |
| 20260830040024 | 56 | 250 | 0.0 | 0.0 | 0.00 | 0.12 | 0.11 | 88 | 1005.4 |
| 20260830034524 | 57 | 147 | 0.0 | 0.0 | 0.00 | 0.12 | 0.11 | 87 | 1005.5 |
| 20260830033026 | 57 | 182 | 0.0 | 0.0 | 0.00 | 0.12 | 0.11 | 85 | 1005.6 |
| 20260830031523 | 57 | 223 | 0.0 | 0.0 | 0.00 | 0.12 | 0.11 | 88 | 1005.3 |
| 20260830030024 | 58 | 306 | 0.0 | 0.0 | 0.00 | 0.12 | 0.11 | 90 | 1005.1 |
| 20260830024522 | 58 | 306 | 0.0 | 0.0 | 0.00 | 0.12 | 0.11 | 89 | 1004.9 |
| 20260830023021 | 59 | 306 | 0.0 | 0.0 | 0.00 | 0.12 | 0.11 | 85 | 1004.8 |
| 20260830021539 | 60 | 306 | 0.0 | 0.0 | 0.01 | 0.12 | 0.11 | 85 | 1004.4 |
| 20260830020029 | 61 | 244 | 0.0 | 0.0 | 0.01 | 0.12 | 0.11 | 84 | 1004.0 |
| 20260830014520 | 62 | 244 | 0.0 | 0.0 | 0.01 | 0.12 | 0.11 | 81 | 1004.1 |
| 20260830013018 | 63 | 243 | 0.0 | 0.0 | 0.03 | 0.12 | 0.11 | 79 | 1004.2 |
| 20260830011520 | 64 | 144 | 0.0 | 0.0 | 0.02 | 0.11 | 0.10 | 83 | 1004.0 |
| 20260830010021 | 64 | 144 | 0.0 | 1.0 | 0.02 | 0.11 | 0.10 | 79 | 1004.1 |